Time,TemperatureF,DewpointF,PressureIn,WindDirection,WindDirectionDegrees,WindSpeedMPH,WindSpeedGustMPH,Humidity,HourlyPrecipIn,Conditions,Clouds,dailyrainin,SoftwareType,DateUTC
2013-08-14 00:08:00,74.0,74.0,29.90,NE,52,5.0,-999.0,100,-99.99,,,0.00,weatherlink.com 1.10,2013-08-13 21:08:00,
2013-08-14 00:23:00,74.0,74.0,29.90,NNE,30,6.0,-999.0,100,-99.99,,,0.00,weatherlink.com 1.10,2013-08-13 21:23:00,
2013-08-14 00:38:00,73.9,74.0,29.90,NE,44,4.0,-999.0,100,-99.99,,,0.00,weatherlink.com 1.10,2013-08-13 21:38:00,
2013-08-14 00:53:00,73.7,74.0,29.89,NE,41,3.0,-999.0,100,-99.99,,,0.00,weatherlink.com 1.10,2013-08-13 21:53:00,
2013-08-14 01:08:00,73.5,74.0,29.89,NE,52,5.0,-999.0,100,-99.99,,,0.00,weatherlink.com 1.10,2013-08-13 22:08:00,
2013-08-14 01:23:00,73.5,74.0,29.89,ENE,62,5.0,-999.0,100,-99.99,,,0.00,weatherlink.com 1.10,2013-08-13 22:23:00,
2013-08-14 01:38:00,73.3,73.0,29.89,NE,45,3.0,-999.0,100,-99.99,,,0.00,weatherlink.com 1.10,2013-08-13 22:38:00,
2013-08-14 01:53:00,73.3,73.0,29.89,NE,52,5.0,-999.0,100,-99.99,,,0.00,weatherlink.com 1.10,2013-08-13 22:53:00,
2013-08-14 02:08:00,73.0,73.0,29.88,NE,41,3.0,-999.0,100,-99.99,,,0.00,weatherlink.com 1.10,2013-08-13 23:08:00,
2013-08-14 02:23:00,73.0,73.0,29.88,NE,38,5.0,-999.0,100,-99.99,,,0.00,weatherlink.com 1.10,2013-08-13 23:23:00,
2013-08-14 02:38:00,72.8,73.0,29.88,NE,34,5.0,-999.0,100,-99.99,,,0.00,weatherlink.com 1.10,2013-08-13 23:38:00,
2013-08-14 02:53:00,72.8,73.0,29.88,NE,44,5.0,-999.0,100,-99.99,,,0.00,weatherlink.com 1.10,2013-08-13 23:53:00,
2013-08-14 03:08:00,72.8,73.0,29.88,NE,40,2.0,-999.0,100,-99.99,,,0.00,weatherlink.com 1.10,2013-08-14 00:08:00,
2013-08-14 03:23:00,72.8,73.0,29.88,NNE,25,6.0,-999.0,100,-99.99,,,0.00,weatherlink.com 1.10,2013-08-14 00:23:00,
2013-08-14 03:38:00,72.8,73.0,29.89,NNE,31,4.0,-999.0,100,-99.99,,,0.00,weatherlink.com 1.10,2013-08-14 00:38:00,
2013-08-14 03:53:00,72.8,73.0,29.88,ENE,64,7.0,-999.0,100,-99.99,,,0.00,weatherlink.com 1.10,2013-08-14 00:53:00,
2013-08-14 04:08:00,72.8,73.0,29.88,NE,37,5.0,-999.0,100,-99.99,,,0.00,weatherlink.com 1.10,2013-08-14 01:08:00,
2013-08-14 04:23:00,72.7,73.0,29.88,NE,42,1.0,-999.0,100,-99.99,,,0.00,weatherlink.com 1.10,2013-08-14 01:23:00,
2013-08-14 04:38:00,72.5,73.0,29.88,NE,41,1.0,-999.0,100,-99.99,,,0.00,weatherlink.com 1.10,2013-08-14 01:38:00,
2013-08-14 04:53:00,72.3,72.0,29.88,NE,45,3.0,-999.0,100,-99.99,,,0.00,weatherlink.com 1.10,2013-08-14 01:53:00,
2013-08-14 05:08:00,72.3,72.0,29.88,NE,45,5.0,-999.0,100,-99.99,,,0.00,weatherlink.com 1.10,2013-08-14 02:08:00,
2013-08-14 05:23:00,72.1,72.0,29.89,NE,51,2.0,-999.0,100,-99.99,,,0.00,weatherlink.com 1.10,2013-08-14 02:23:00,
2013-08-14 05:38:00,72.1,72.0,29.89,NE,48,0.0,-999.0,100,-99.99,,,0.00,weatherlink.com 1.10,2013-08-14 02:38:00,
2013-08-14 05:53:00,72.0,72.0,29.89,NE,35,2.0,-999.0,100,-99.99,,,0.00,weatherlink.com 1.10,2013-08-14 02:53:00,
2013-08-14 06:08:00,72.0,72.0,29.89,NE,48,5.0,-999.0,100,-99.99,,,0.00,weatherlink.com 1.10,2013-08-14 03:08:00,
2013-08-14 06:23:00,72.0,72.0,29.89,NE,45,4.0,-999.0,100,-99.99,,,0.00,weatherlink.com 1.10,2013-08-14 03:23:00,
2013-08-14 06:38:00,72.1,72.0,29.90,NE,45,0.0,-999.0,100,-99.99,,,0.00,weatherlink.com 1.10,2013-08-14 03:38:00,
2013-08-14 06:53:00,72.3,72.0,29.90,NNE,20,0.0,-999.0,100,-99.99,,,0.00,weatherlink.com 1.10,2013-08-14 03:53:00,
2013-08-14 07:08:00,72.3,72.0,29.90,NNE,31,2.0,-999.0,100,-99.99,,,0.00,weatherlink.com 1.10,2013-08-14 04:08:00,
2013-08-14 07:23:00,72.5,73.0,29.90,NNE,25,6.0,-999.0,100,-99.99,,,0.00,weatherlink.com 1.10,2013-08-14 04:23:00,
2013-08-14 07:38:00,73.0,73.0,29.90,NE,37,4.0,-999.0,100,-99.99,,,0.00,weatherlink.com 1.10,2013-08-14 04:38:00,
2013-08-14 07:53:00,73.5,74.0,29.90,NE,34,5.0,-999.0,100,-99.99,,,0.00,weatherlink.com 1.10,2013-08-14 04:53:00,
2013-08-14 08:09:00,73.9,74.0,29.90,NNE,16,5.0,-999.0,100,-99.99,,,0.00,weatherlink.com 1.10,2013-08-14 05:09:00,
2013-08-14 08:24:00,73.9,74.0,29.90,NE,38,5.0,-999.0,100,-99.99,,,0.00,weatherlink.com 1.10,2013-08-14 05:24:00,
2013-08-14 08:39:00,74.2,74.0,29.90,NE,51,7.0,-999.0,100,-99.99,,,0.00,weatherlink.com 1.10,2013-08-14 05:39:00,
2013-08-14 08:54:00,75.1,75.0,29.90,ENE,78,8.0,-999.0,100,-99.99,,,0.00,weatherlink.com 1.10,2013-08-14 05:54:00,
2013-08-14 09:09:00,75.6,76.0,29.90,ENE,69,9.0,-999.0,100,-99.99,,,0.00,weatherlink.com 1.10,2013-08-14 06:09:00,
2013-08-14 09:24:00,76.3,76.0,29.90,ENE,73,11.0,-999.0,100,-99.99,,,0.00,weatherlink.com 1.10,2013-08-14 06:24:00,
2013-08-14 09:39:00,76.7,76.0,29.90,NNE,21,14.0,-999.0,98,-99.99,,,0.00,weatherlink.com 1.10,2013-08-14 06:39:00,
2013-08-14 09:54:00,77.0,75.0,29.90,ENE,64,8.0,-999.0,93,-99.99,,,0.00,weatherlink.com 1.10,2013-08-14 06:54:00,
2013-08-14 10:09:00,77.7,74.0,29.90,ENE,58,8.0,-999.0,87,-99.99,,,0.00,weatherlink.com 1.10,2013-08-14 07:09:00,
2013-08-14 10:24:00,78.8,73.0,29.90,North,1,14.0,-999.0,83,-99.99,,,0.00,weatherlink.com 1.10,2013-08-14 07:24:00,
2013-08-14 10:39:00,79.6,74.0,29.90,NNE,17,10.0,-999.0,83,-99.99,,,0.00,weatherlink.com 1.10,2013-08-14 07:39:00,
2013-08-14 10:54:00,79.6,74.0,29.90,NE,37,12.0,-999.0,83,-99.99,,,0.00,weatherlink.com 1.10,2013-08-14 07:54:00,
2013-08-14 11:09:00,79.9,74.0,29.90,NE,34,12.0,-999.0,82,-99.99,,,0.00,weatherlink.com 1.10,2013-08-14 08:09:00,
2013-08-14 11:24:00,79.9,74.0,29.90,NE,45,13.0,-999.0,81,-99.99,,,0.00,weatherlink.com 1.10,2013-08-14 08:24:00,
2013-08-14 11:39:00,80.1,74.0,29.90,NNE,14,11.0,-999.0,81,-99.99,,,0.00,weatherlink.com 1.10,2013-08-14 08:39:00,
2013-08-14 11:54:00,80.1,73.0,29.90,NE,38,8.0,-999.0,80,-99.99,,,0.00,weatherlink.com 1.10,2013-08-14 08:54:00,
2013-08-14 12:09:00,79.6,73.0,29.90,NNE,23,6.0,-999.0,81,-99.99,,,0.00,weatherlink.com 1.10,2013-08-14 09:09:00,
2013-08-14 12:24:00,79.9,74.0,29.90,North,8,17.0,-999.0,81,-99.99,,,0.00,weatherlink.com 1.10,2013-08-14 09:24:00,
2013-08-14 12:39:00,79.4,73.0,29.90,NNE,21,11.0,-999.0,81,-99.99,,,0.00,weatherlink.com 1.10,2013-08-14 09:39:00,
2013-08-14 12:54:00,79.9,73.0,29.90,North,3,16.0,-999.0,80,-99.99,,,0.00,weatherlink.com 1.10,2013-08-14 09:54:00,
2013-08-14 13:09:00,79.9,74.0,29.90,NNE,17,17.0,-999.0,81,-99.99,,,0.00,weatherlink.com 1.10,2013-08-14 10:09:00,
2013-08-14 13:24:00,80.1,74.0,29.90,NNE,23,20.0,-999.0,81,-99.99,,,0.00,weatherlink.com 1.10,2013-08-14 10:24:00,
2013-08-14 13:39:00,80.3,74.0,29.89,NE,37,9.0,-999.0,80,-99.99,,,0.00,weatherlink.com 1.10,2013-08-14 10:39:00,
2013-08-14 13:54:00,80.3,74.0,29.90,NNE,18,17.0,-999.0,80,-99.99,,,0.00,weatherlink.com 1.10,2013-08-14 10:54:00,
2013-08-14 14:09:00,80.3,74.0,29.90,North,8,16.0,-999.0,81,-99.99,,,0.00,weatherlink.com 1.10,2013-08-14 11:09:00,
2013-08-14 14:24:00,80.1,74.0,29.90,NNE,24,14.0,-999.0,81,-99.99,,,0.00,weatherlink.com 1.10,2013-08-14 11:24:00,
2013-08-14 14:40:00,80.1,74.0,29.89,North,11,17.0,-999.0,82,-99.99,,,0.00,weatherlink.com 1.10,2013-08-14 11:40:00,
2013-08-14 14:54:00,79.9,74.0,29.89,NNE,25,9.0,-999.0,83,-99.99,,,0.00,weatherlink.com 1.10,2013-08-14 11:54:00,
2013-08-14 15:09:00,79.6,74.0,29.89,NE,34,18.0,-999.0,84,-99.99,,,0.00,weatherlink.com 1.10,2013-08-14 12:09:00,
2013-08-14 15:24:00,79.2,74.0,29.89,NNE,27,17.0,-999.0,85,-99.99,,,0.00,weatherlink.com 1.10,2013-08-14 12:24:00,
2013-08-14 15:39:00,79.4,75.0,29.89,NE,44,8.0,-999.0,86,-99.99,,,0.00,weatherlink.com 1.10,2013-08-14 12:39:00,
2013-08-14 15:54:00,79.2,75.0,29.89,NNE,24,13.0,-999.0,86,-99.99,,,0.00,weatherlink.com 1.10,2013-08-14 12:54:00,
2013-08-14 16:09:00,79.0,74.0,29.89,NNE,21,16.0,-999.0,85,-99.99,,,0.00,weatherlink.com 1.10,2013-08-14 13:09:00,
2013-08-14 16:24:00,79.2,74.0,29.89,NNE,13,14.0,-999.0,83,-99.99,,,0.00,weatherlink.com 1.10,2013-08-14 13:24:00,
2013-08-14 16:39:00,79.4,74.0,29.88,North,1,8.0,-999.0,82,-99.99,,,0.00,weatherlink.com 1.10,2013-08-14 13:39:00,
2013-08-14 16:54:00,79.4,73.0,29.88,NNE,23,13.0,-999.0,81,-99.99,,,0.00,weatherlink.com 1.10,2013-08-14 13:54:00,
2013-08-14 17:09:00,79.8,72.0,29.88,NNE,30,8.0,-999.0,76,-99.99,,,0.00,weatherlink.com 1.10,2013-08-14 14:09:00,
2013-08-14 17:24:00,79.8,71.0,29.88,NE,34,12.0,-999.0,74,-99.99,,,0.00,weatherlink.com 1.10,2013-08-14 14:24:00,
2013-08-14 17:39:00,79.8,70.0,29.88,NNE,16,16.0,-999.0,72,-99.99,,,0.00,weatherlink.com 1.10,2013-08-14 14:39:00,
2013-08-14 17:54:00,79.8,69.0,29.88,NNE,25,12.0,-999.0,70,-99.99,,,0.00,weatherlink.com 1.10,2013-08-14 14:54:00,
2013-08-14 18:09:00,79.6,69.0,29.88,NNE,18,7.0,-999.0,71,-99.99,,,0.00,weatherlink.com 1.10,2013-08-14 15:09:00,
2013-08-14 18:24:00,79.4,70.0,29.87,ENE,68,5.0,-999.0,74,-99.99,,,0.00,weatherlink.com 1.10,2013-08-14 15:24:00,
2013-08-14 18:39:00,79.0,71.0,29.88,North,10,10.0,-999.0,77,-99.99,,,0.00,weatherlink.com 1.10,2013-08-14 15:39:00,
2013-08-14 18:54:00,78.8,71.0,29.88,NNE,20,10.0,-999.0,76,-99.99,,,0.00,weatherlink.com 1.10,2013-08-14 15:54:00,
2013-08-14 19:09:00,78.6,70.0,29.88,NE,40,8.0,-999.0,76,-99.99,,,0.00,weatherlink.com 1.10,2013-08-14 16:09:00,
2013-08-14 19:24:00,78.3,71.0,29.88,NE,48,11.0,-999.0,78,-99.99,,,0.00,weatherlink.com 1.10,2013-08-14 16:24:00,
2013-08-14 19:39:00,77.9,71.0,29.88,NE,34,10.0,-999.0,80,-99.99,,,0.00,weatherlink.com 1.10,2013-08-14 16:39:00,
2013-08-14 19:54:00,77.4,72.0,29.88,NNE,17,8.0,-999.0,83,-99.99,,,0.00,weatherlink.com 1.10,2013-08-14 16:54:00,
2013-08-14 20:09:00,77.0,73.0,29.88,NE,49,11.0,-999.0,86,-99.99,,,0.00,weatherlink.com 1.10,2013-08-14 17:09:00,
2013-08-14 20:24:00,76.7,73.0,29.89,NNE,27,10.0,-999.0,88,-99.99,,,0.00,weatherlink.com 1.10,2013-08-14 17:24:00,
2013-08-14 20:39:00,76.5,74.0,29.89,NE,34,11.0,-999.0,91,-99.99,,,0.00,weatherlink.com 1.10,2013-08-14 17:39:00,
2013-08-14 20:54:00,76.1,74.0,29.89,North,11,7.0,-999.0,94,-99.99,,,0.00,weatherlink.com 1.10,2013-08-14 17:54:00,
2013-08-14 21:09:00,76.0,75.0,29.89,NNE,20,6.0,-999.0,97,-99.99,,,0.00,weatherlink.com 1.10,2013-08-14 18:09:00,
2013-08-14 21:39:00,75.6,76.0,29.90,NNE,31,10.0,-999.0,100,-99.99,,,0.00,weatherlink.com 1.10,2013-08-14 18:39:00,
2013-08-14 22:39:00,75.1,75.0,29.89,NE,45,6.0,-999.0,100,-99.99,,,0.00,weatherlink.com 1.10,2013-08-14 19:39:00,
2013-08-14 22:54:00,75.1,75.0,29.89,NE,52,6.0,-999.0,100,-99.99,,,0.00,weatherlink.com 1.10,2013-08-14 19:54:00,
2013-08-14 23:09:00,74.9,75.0,29.89,NE,48,7.0,-999.0,100,-99.99,,,0.00,weatherlink.com 1.10,2013-08-14 20:09:00,
2013-08-14 23:24:00,74.9,75.0,29.89,NE,52,5.0,-999.0,100,-99.99,,,0.00,weatherlink.com 1.10,2013-08-14 20:24:00,
2013-08-14 23:39:00,74.9,75.0,29.89,NE,44,9.0,-999.0,100,-99.99,,,0.00,weatherlink.com 1.10,2013-08-14 20:39:00,
2013-08-14 23:54:00,74.6,75.0,29.89,NE,44,6.0,-999.0,100,-99.99,,,0.00,weatherlink.com 1.10,2013-08-14 20:54:00,